User: anonymous
Location: Columbia
(38.9520°N, 92.3340°W)
Time: 05:18:57
(UTC-05:00)
Language:

CZ-2C R/B - Orbit

View from above orbital plane
View from above orbital plane
View from above satellite
View from above satellite

Ground track
Ground track

The orbit data is extracted from the following two-line orbital elements,

1 28480U 04046B   14207.46917922  .00000002  00000-0  15607-4 0  3911
2 28480 098.0951 000.4347 0143923 105.7322 322.2008 14.25315803503687
Epoch (UTC): 26 July 2014 11:15:37
Eccentricity: 0.0143923
inclination: 98.0951°
perigee height: 704 km
apogee height: 911 km
right ascension of ascending node: 0.4347°
argument of perigee: 105.7322°
revolutions per day: 14.25315803
mean anomaly at epoch: 322.2008°
orbit number at epoch: 50368

The dashed part of the orbit path shows where the satellite is in the earth's shadow,  

DLR